Powrót do katalogu

NATO 3D

AktywnyMilitariaGEO
NORAD 15391·PAYLOAD· XX

Wystrzelony Nov 14, 1984 z Cape Canaveral Space Force Station

Loading…

TLE

ŚwieżeSource: Space-Track

Epoka: Sep 14, 2026, 12:27 UTC

1 15391U 84115A   26257.51926552 -.00000134  00000-0  00000-0 0  9994
2 15391  14.2740 354.8510 0099274 133.6230 252.1586  0.94955138148730

Śledź NATO 3D w czasie rzeczywistym z AllMySat

Download on the App Store